When you browse on this site, cookies collect data to enhance your experience and personalize the content and advertising you see.
Visit our Privacy Policy to learn more. By continuing to use the site, you agree to this use of cookies and data.
  • Em Portugal
  • Lista de países
  • Para 7 dias
  • Temperatura da água
  • Mapas de satélite
  • Mapa do tempo
  • Widgets de tempo
  • user-avatar
    Iniciar Sessão

    Previsão horária em Lankaran

    Hoje, 21 Julho, Domingo

    Tempo Temperatura Precipitação Vento Pressão Humidade
    00:00 +16°C° 0 mm 1 m/s 635 mmHg 61%
    01:00 +16°C° 0 mm 1 m/s 635 mmHg 61%
    02:00 +16°C° 0 mm 1 m/s 635 mmHg 61%
    03:00 +15°C° 0 mm 1 m/s 635 mmHg 64%
    04:00 +16°C° 0 mm 1 m/s 635 mmHg 62%
    05:00 +18°C° 0 mm 1 m/s 636 mmHg 59%
    06:00 +19°C° 0 mm 1 m/s 637 mmHg 57%
    07:00 +21°C° 0 mm 1 m/s 637 mmHg 51%
    08:00 +23°C° 0 mm 1 m/s 637 mmHg 46%
    09:00 +25°C° 0 mm 2 m/s 638 mmHg 39%
    10:00 +26°C° 0 mm 3 m/s 638 mmHg 36%
    11:00 +27°C° 0 mm 3 m/s 638 mmHg 34%
    12:00 +28°C° 0 mm 3 m/s 638 mmHg 32%
    13:00 +28°C° 0 mm 3 m/s 637 mmHg 33%
    14:00 +29°C° 0 mm 3 m/s 637 mmHg 33%
    15:00 +29°C° 0 mm 3 m/s 636 mmHg 34%
    16:00 +27°C° 0 mm 3 m/s 636 mmHg 38%
    17:00 +26°C° 0 mm 3 m/s 635 mmHg 42%
    18:00 +25°C° 0 mm 2 m/s 635 mmHg 46%
    19:00 +23°C° 0 mm 2 m/s 635 mmHg 48%
    20:00 +22°C° 0 mm 1 m/s 634 mmHg 50%
    21:00 +18°C° 0 mm 0 m/s 633 mmHg 52%
    22:00 +18°C° 0 mm 0 m/s 633 mmHg 51%
    23:00 +20°C° 0 mm 1 m/s 633 mmHg 50%

    Amanhã, 22 Julho, Segunda-feira

    Tempo Temperatura Precipitação Vento Pressão Humidade
    00:00 +20°C° 0 mm 1 m/s 633 mmHg 49%
    01:00 +20°C° 0 mm 1 m/s 633 mmHg 51%
    02:00 +19°C° 0 mm 1 m/s 633 mmHg 53%
    03:00 +17°C° 0 mm 0 m/s 633 mmHg 54%
    04:00 +18°C° 0 mm 0 m/s 633 mmHg 51%
    05:00 +19°C° 0 mm 0 m/s 633 mmHg 49%
    06:00 +20°C° 0 mm 0 m/s 634 mmHg 46%
    07:00 +24°C° 0 mm 1 m/s 634 mmHg 42%
    08:00 +26°C° 0 mm 2 m/s 635 mmHg 37%
    09:00 +28°C° 0 mm 2 m/s 636 mmHg 33%
    10:00 +29°C° 0 mm 3 m/s 636 mmHg 33%
    11:00 +30°C° 0 mm 3 m/s 636 mmHg 33%
    12:00 +32°C° 0 mm 4 m/s 636 mmHg 33%
    13:00 +30°C° 0 mm 4 m/s 635 mmHg 35%
    14:00 +30°C° 0 mm 4 m/s 635 mmHg 37%
    15:00 +29°C° 0 mm 4 m/s 634 mmHg 39%
    16:00 +27°C° 0 mm 4 m/s 634 mmHg 43%
    17:00 +25°C° 0 mm 3 m/s 633 mmHg 46%
    18:00 +24°C° 0 mm 3 m/s 633 mmHg 50%
    19:00 +21°C° 0 mm 2 m/s 632 mmHg 54%
    20:00 +20°C° 0 mm 2 m/s 632 mmHg 58%
    21:00 +18°C° 0 mm 2 m/s 632 mmHg 62%
    22:00 +17°C° 0 mm 2 m/s 632 mmHg 66%
    23:00 +17°C° 0 mm 2 m/s 632 mmHg 69%

    Depois de amanhã, 23 Julho, Terça-feira

    Tempo Temperatura Precipitação Vento Pressão Humidade
    00:00 +16°C° 0 mm 2 m/s 631 mmHg 73%
    01:00 +16°C° 0 mm 2 m/s 631 mmHg 73%
    02:00 +16°C° 0 mm 2 m/s 631 mmHg 73%
    03:00 +16°C° 0 mm 3 m/s 631 mmHg 73%
    04:00 +16°C° 0 mm 3 m/s 632 mmHg 70%
    05:00 +16°C° 0 mm 3 m/s 632 mmHg 68%
    06:00 +16°C° 0 mm 3 m/s 632 mmHg 66%
    07:00 +18°C° 0 mm 3 m/s 633 mmHg 60%
    08:00 +19°C° 0 mm 3 m/s 633 mmHg 55%
    09:00 +21°C° 0 mm 4 m/s 634 mmHg 49%
    10:00 +22°C° 0 mm 4 m/s 634 mmHg 48%
    11:00 +23°C° 0 mm 4 m/s 634 mmHg 47%
    12:00 +25°C° 0 mm 4 m/s 633 mmHg 45%
    13:00 +25°C° 0 mm 4 m/s 633 mmHg 45%
    14:00 +25°C° 0 mm 4 m/s 633 mmHg 45%
    15:00 +26°C° 0 mm 4 m/s 632 mmHg 44%
    16:00 +25°C° 0 mm 3 m/s 632 mmHg 48%
    17:00 +24°C° 0 mm 3 m/s 632 mmHg 52%
    18:00 +23°C° 0 mm 2 m/s 631 mmHg 56%
    19:00 +21°C° 0 mm 2 m/s 631 mmHg 58%
    20:00 +21°C° 0 mm 1 m/s 631 mmHg 61%
    21:00 +20°C° 0 mm 1 m/s 631 mmHg 63%
    22:00 +19°C° 0 mm 1 m/s 631 mmHg 63%
    23:00 +19°C° 0 mm 1 m/s 630 mmHg 63%

    24 Julho, Quarta-feira

    Tempo Temperatura Precipitação Vento Pressão Humidade
    00:00 +18°C° 0 mm 1 m/s 630 mmHg 63%
    01:00 +18°C° 0 mm 1 m/s 630 mmHg 64%
    02:00 +16°C° 0 mm 1 m/s 630 mmHg 66%
    03:00 +16°C° 0 mm 1 m/s 629 mmHg 68%
    04:00 +16°C° 0 mm 1 m/s 630 mmHg 67%
    05:00 +18°C° 0 mm 1 m/s 630 mmHg 65%
    06:00 +19°C° 0 mm 1 m/s 631 mmHg 63%
    07:00 +19°C° 0 mm 2 m/s 631 mmHg 58%
    08:00 +21°C° 0 mm 2 m/s 632 mmHg 52%
    09:00 +24°C° 0 mm 2 m/s 633 mmHg 47%
    10:00 +25°C° 0 mm 3 m/s 633 mmHg 45%
    11:00 +26°C° 0 mm 3 m/s 633 mmHg 43%
    12:00 +27°C° 0 mm 4 m/s 633 mmHg 40%
    13:00 +27°C° 0 mm 3 m/s 632 mmHg 41%
    14:00 +27°C° 0 mm 3 m/s 632 mmHg 41%
    15:00 +27°C° 0 mm 3 m/s 632 mmHg 41%
    16:00 +26°C° 0 mm 3 m/s 631 mmHg 44%
    17:00 +25°C° 0 mm 2 m/s 631 mmHg 48%
    18:00 +24°C° 0 mm 2 m/s 631 mmHg 51%
    19:00 +23°C° 0 mm 2 m/s 631 mmHg 54%
    20:00 +21°C° 0 mm 1 m/s 631 mmHg 56%
    21:00 +20°C° 0 mm 1 m/s 631 mmHg 59%
    22:00 +20°C° 0 mm 1 m/s 631 mmHg 59%
    23:00 +17°C° 0 mm 0 m/s 631 mmHg 58%

    25 Julho, Quinta-feira

    Tempo Temperatura Precipitação Vento Pressão Humidade
    00:00 +17°C° 0 mm 0 m/s 631 mmHg 58%
    01:00 +17°C° 0 mm 0 m/s 630 mmHg 58%
    02:00 +17°C° 0 mm 0 m/s 630 mmHg 58%
    03:00 +17°C° 0 mm 0 m/s 630 mmHg 58%
    04:00 +18°C° 0 mm 0 m/s 631 mmHg 55%
    05:00 +19°C° 0 mm 0 m/s 632 mmHg 53%
    06:00 +20°C° 0 mm 0 m/s 632 mmHg 50%
    07:00 +24°C° 0 mm 1 m/s 633 mmHg 45%
    08:00 +26°C° 0 mm 1 m/s 634 mmHg 40%
    09:00 +27°C° 0 mm 2 m/s 634 mmHg 35%
    10:00 +28°C° 0 mm 3 m/s 634 mmHg 34%
    11:00 +30°C° 0 mm 3 m/s 634 mmHg 32%
    12:00 +31°C° 0 mm 3 m/s 634 mmHg 30%
    13:00 +30°C° 0 mm 4 m/s 634 mmHg 31%
    14:00 +30°C° 0 mm 4 m/s 633 mmHg 31%
    15:00 +30°C° 0 mm 4 m/s 633 mmHg 32%
    16:00 +29°C° 0 mm 3 m/s 632 mmHg 36%
    17:00 +27°C° 0 mm 3 m/s 632 mmHg 39%
    18:00 +26°C° 0 mm 3 m/s 631 mmHg 43%
    19:00 +24°C° 0 mm 2 m/s 631 mmHg 46%
    20:00 +22°C° 0 mm 1 m/s 631 mmHg 49%
    21:00 +21°C° 0 mm 1 m/s 631 mmHg 51%
    22:00 +20°C° 0 mm 1 m/s 630 mmHg 51%
    23:00 +20°C° 0 mm 1 m/s 630 mmHg 52%

    26 Julho, Sexta-feira

    Tempo Temperatura Precipitação Vento Pressão Humidade
    00:00 +19°C° 0 mm 1 m/s 630 mmHg 52%
    01:00 +19°C° 0 mm 1 m/s 630 mmHg 52%
    02:00 +18°C° 0 mm 1 m/s 630 mmHg 53%
    03:00 +18°C° 0 mm 1 m/s 629 mmHg 54%
    04:00 +19°C° 0 mm 1 m/s 630 mmHg 53%
    05:00 +19°C° 0 mm 1 m/s 630 mmHg 53%
    06:00 +20°C° 0 mm 1 m/s 631 mmHg 53%
    07:00 +20°C° 0 mm 2 m/s 631 mmHg 50%
    08:00 +22°C° 0 mm 3 m/s 632 mmHg 46%
    09:00 +25°C° 0 mm 3 m/s 632 mmHg 43%
    10:00 +25°C° 0 mm 4 m/s 632 mmHg 42%
    11:00 +26°C° 0 mm 4 m/s 632 mmHg 42%
    12:00 +26°C° 0 mm 4 m/s 632 mmHg 41%
    13:00 +26°C° 0 mm 4 m/s 631 mmHg 43%
    14:00 +25°C° 0 mm 4 m/s 630 mmHg 45%
    15:00 +25°C° 0 mm 4 m/s 630 mmHg 46%
    16:00 +23°C° 0 mm 4 m/s 629 mmHg 50%
    17:00 +21°C° 0 mm 3 m/s 629 mmHg 54%
    18:00 +20°C° 0 mm 3 m/s 629 mmHg 57%
    19:00 +19°C° 0 mm 2 m/s 629 mmHg 61%
    20:00 +18°C° 0 mm 1 m/s 629 mmHg 65%
    21:00 +16°C° 0 mm 1 m/s 629 mmHg 69%
    22:00 +16°C° 0 mm 1 m/s 628 mmHg 68%
    23:00 +15°C° 0 mm 1 m/s 628 mmHg 67%
    Mostrar mais